User: anonymous   Login
Location: Unspecified
(0.0000°N, 0.0000°E)
Time: 05:05:43
(UTC+01:00)
Language:

CZ-4 R/B - Orbit

View from above orbital plane
View from above orbital plane
View from above satellite
View from above satellite

Ground track
Ground track

The orbit data is extracted from the following two-line orbital elements,

1 28059U 03049C   14329.51905962  .00000351  00000-0  97466-4 0  2219
2 28059 098.6806 173.8062 0050036 211.5552 203.3485 14.52215280588001
Epoch (UTC): 25 November 2014 12:27:26
Eccentricity: 0.0050036
inclination: 98.6806°
perigee height: 683 km
apogee height: 754 km
right ascension of ascending node: 173.8062°
argument of perigee: 211.5552°
revolutions per day: 14.52215280
mean anomaly at epoch: 203.3485°
orbit number at epoch: 58800

The dashed part of the orbit path shows where the satellite is in the earth's shadow,  

DLR